DW4915 Mazarete ES current weather conditions

sailwx.info

Wind from 067

Air temperature 14.4° C
Dewpoint 6.3° C

Last reported at 2015-May-27 08:46 UTC.
Time now 2015-May-27 09:56 UTC

Location: N 40°58' W 002°11'.
View on Google Maps.

See reports from other nearby stations

  
Tides and Currents Weather Stations Pressure Air Temp Water Temp Dewpoint Dewpoint Depression Visibility Wind Speed Wind Dir Waves Ship Positions
date/time (UTC)wind fromknots sea level pressurealtimeterstation pressurevisibilityair tempwater tempwave heightnotes
2015-May-27 08:46 067 14.4
2015-May-27 08:36 068 13.9
2015-May-27 08:31 068 13.9
2015-May-27 08:26 073 13.9
2015-May-27 08:16 074 13.3
2015-May-27 08:11 083 13.3
2015-May-27 08:06 054 12.8
2015-May-27 07:56 081 12.2
2015-May-27 07:51 040 12.2
2015-May-27 07:46 064 11.7
2015-May-27 07:41 065 11.1
2015-May-27 07:31 064 10.6
2015-May-27 07:26 065 10.6
2015-May-27 07:21 066 10.0
2015-May-27 07:16 064 10.0
2015-May-27 07:11 065 9.4
2015-May-27 07:06 065 9.4
2015-May-27 06:56 063 8.9
2015-May-27 06:51 065 8.9
2015-May-27 06:46 065 8.3
2015-May-27 06:41 065 8.3
2015-May-27 06:31 064 7.8
2015-May-27 06:26 064 7.2
2015-May-27 06:21 066 7.2
2015-May-27 06:11 065 5.6
2015-May-27 06:06 064 5.0
2015-May-27 05:56 065 3.9
2015-May-27 05:51 064 3.3
2015-May-27 05:46 064 2.8
2015-May-27 05:36 064 2.2
2015-May-27 05:31 065 1.7
2015-May-27 05:26 063 1.7
2015-May-27 05:16 063 1.7
2015-May-27 05:11 064 1.7
2015-May-27 05:01 065 1.7
2015-May-27 04:56 064 1.1
2015-May-27 04:51 064 1.1
2015-May-27 04:46 065 1.7
2015-May-27 04:36 064 1.7
2015-May-27 04:31 065 2.2
2015-May-27 04:21 065 3.3
2015-May-27 04:16 065 3.3
2015-May-27 04:11 063 3.9
2015-May-27 04:01 064 4.4
2015-May-27 03:56 064 4.4
2015-May-27 03:51 064 5.0
2015-May-27 03:41 064 5.0
2015-May-27 03:36 065 5.0
2015-May-27 03:31 064 5.0
2015-May-27 03:21 065 5.6
2015-May-27 03:16 065 5.6
2015-May-27 03:11 063 5.6
2015-May-27 03:01 066 5.6
2015-May-27 02:56 077 5.6
2015-May-27 02:46 077 5.6
2015-May-27 02:41 077 5.6
2015-May-27 02:36 077 6.1
2015-May-27 02:26 077 6.1
2015-May-27 02:21 077 6.1
2015-May-27 02:11 077 6.1
2015-May-27 02:06 076 6.1
2015-May-27 01:56 071 6.7
2015-May-27 01:51 075 6.7
2015-May-27 01:41 052 6.7
2015-May-27 01:36 052 6.7
2015-May-27 01:31 052 6.7
2015-May-27 01:26 052 6.7
2015-May-27 01:21 052 6.7
2015-May-27 01:16 052 6.7
2015-May-27 01:06 044 6.7
2015-May-27 01:01 058 6.7
2015-May-27 00:56 056 6.7
2015-May-27 00:51 055 6.7
2015-May-27 00:46 056 6.7
2015-May-27 00:41 044 6.7
2015-May-27 00:31 035 7.2
2015-May-27 00:26 017 7.2
2015-May-27 00:16 075 7.2
2015-May-27 00:11 075 7.2
2015-May-27 00:01 021 7.2
2015-May-26 23:56 004 7.2
2015-May-26 23:46 036 7.8
2015-May-26 23:41 017 7.8
2015-May-26 23:36 056 7.8
2015-May-26 23:26 033 7.8
2015-May-26 23:21 021 7.8
2015-May-26 23:11 015 7.8
2015-May-26 23:06 013 7.8
2015-May-26 22:56 356 7.8
2015-May-26 22:51 037 7.8
2015-May-26 22:41 017 8.3
2015-May-26 22:36 046 8.3
2015-May-26 22:26 017 8.3
2015-May-26 22:21 014 8.3
2015-May-26 22:16 019 8.9
2015-May-26 22:11 011 8.9
2015-May-26 22:06 040 8.9
2015-May-26 21:56 040 8.9
2015-May-26 21:51 045 8.9
2015-May-26 21:46 010 8.9
2015-May-26 21:36 045 9.4
2015-May-26 21:31 041 9.4
2015-May-26 21:21 039 9.4
2015-May-26 21:16 050 9.4
2015-May-26 21:06 026 10.0
2015-May-26 21:01 048 10.0
2015-May-26 20:56 050 10.0
2015-May-26 20:46 044 10.6
2015-May-26 20:41 031 10.6
2015-May-26 20:31 043 10.6
2015-May-26 20:26 008 10.6
2015-May-26 20:21 053 11.1
2015-May-26 20:11 025 11.1
2015-May-26 20:01 019 11.7
2015-May-26 19:56 056 11.7
2015-May-26 19:51 009 12.2
2015-May-26 19:41 026 12.2
2015-May-26 19:36 027 12.8
2015-May-26 19:26 019 12.8
2015-May-26 19:21 021 13.3
2015-May-26 19:11 016 13.9
2015-May-26 19:06 032 13.9
2015-May-26 18:56 009 14.4
2015-May-26 18:51 036 15.0
2015-May-26 18:46 024 15.0
2015-May-26 18:36 023 15.6
2015-May-26 18:31 351 15.6
2015-May-26 18:26 036 15.6
2015-May-26 18:16 006 16.1
2015-May-26 18:11 003 16.7
2015-May-26 18:01 017 17.2
2015-May-26 17:56 005 17.2
2015-May-26 17:46 013 17.8
2015-May-26 17:41 020 17.8
2015-May-26 17:36 006 17.8
2015-May-26 17:26 352 17.8
2015-May-26 17:21 349 18.3
2015-May-26 17:11 350 18.3
2015-May-26 17:06 006 18.3
2015-May-26 17:01 027 18.3
2015-May-26 16:46 026 18.3
2015-May-26 16:36 360 18.9
2015-May-26 16:31 349 18.3
2015-May-26 16:21 360 18.9
2015-May-26 16:16 008 18.9
2015-May-26 16:11 356 18.9
2015-May-26 16:06 004 18.9
2015-May-26 15:56 042 18.9
2015-May-26 15:51 358 18.9
2015-May-26 15:46 356 19.4
2015-May-26 15:36 356 18.9
2015-May-26 15:31 045 18.9
2015-May-26 15:26 346 18.9
2015-May-26 15:16 007 18.9
2015-May-26 15:11 002 18.9
2015-May-26 15:01 346 19.4
2015-May-26 14:56 356 18.9
2015-May-26 14:51 347 18.9
2015-May-26 14:41 356 18.9
2015-May-26 14:36 348 18.9
2015-May-26 14:31 013 19.4
2015-May-26 14:21 006 18.9
2015-May-26 14:16 006 18.3
2015-May-26 14:01 043 18.3
2015-May-26 13:51 002 18.3
2015-May-26 13:46 072 18.3
2015-May-26 13:41 344 18.3
2015-May-26 13:31 013 18.9
2015-May-26 13:26 014 18.3
2015-May-26 13:16 017 18.3
2015-May-26 13:11 014 18.3
2015-May-26 13:01 005 17.8
2015-May-26 12:56 347 17.8
2015-May-26 12:51 059 17.8
2015-May-26 12:41 034 17.8
2015-May-26 12:36 016 17.2
2015-May-26 12:26 343 17.2
2015-May-26 12:21 351 17.2
2015-May-26 12:11 023 16.7
2015-May-26 12:06 009 16.7
2015-May-26 11:56 348 16.7
2015-May-26 11:51 002 16.7
2015-May-26 11:46 345 16.7
2015-May-26 11:36 051 16.1
2015-May-26 11:31 006 16.1
2015-May-26 11:21 356 16.1
2015-May-26 11:16 356 16.1
2015-May-26 11:06 346 15.6
2015-May-26 11:01 345 16.1
2015-May-26 10:51 351 16.1
2015-May-26 10:46 025 16.1
2015-May-26 10:41 038 16.1
2015-May-26 10:31 340 15.6
2015-May-26 10:26 358 15.6
2015-May-26 10:16 002 15.0
2015-May-26 10:11 006 15.6
2015-May-26 10:01 052 15.0
2015-May-26 09:56 033 15.0
2015-May-26 09:51 035 14.4
2015-May-26 09:41 027 13.9
2015-May-26 09:36 032 14.4
2015-May-26 09:31 027 14.4
2015-May-26 09:21 011 13.9
2015-May-26 09:16 002 14.4
2015-May-26 09:11 358 13.9
2015-May-26 09:01 041 13.9
2015-May-26 08:56 046 13.3
2015-May-26 08:51 023 13.3
2015-May-26 08:41 021 12.8
2015-May-26 08:36 002 12.8
2015-May-26 08:31 062 12.8
2015-May-26 08:21 001 12.2
2015-May-26 08:11 001 12.8
2015-May-26 08:06 065 12.2
2015-May-26 07:56 041 12.2
2015-May-26 07:51 029 11.7
2015-May-26 07:46 054 11.7
2015-May-26 07:41 005 11.7
2015-May-26 07:31 027 11.7
2015-May-26 07:26 027 11.1
2015-May-26 07:21 041 11.1
2015-May-26 07:11 040 10.6
2015-May-26 07:06 015 10.6
2015-May-26 07:01 074 10.6
2015-May-26 06:51 065 10.0
2015-May-26 06:46 029 10.0
2015-May-26 06:36 040 9.4
2015-May-26 06:26 034 9.4
2015-May-26 06:16 036 8.9
2015-May-26 06:11 052 8.9
2015-May-26 06:06 054 8.9
2015-May-26 05:56 062 8.3
2015-May-26 05:51 057 7.8
2015-May-26 05:46 044 7.2
2015-May-26 05:36 040 6.7
2015-May-26 05:31 044 6.1
2015-May-26 05:26 044 5.6
2015-May-26 05:16 043 5.6
2015-May-26 05:11 042 5.6
2015-May-26 05:06 044 5.6
2015-May-26 04:56 043 6.1
2015-May-26 04:51 044 6.1
2015-May-26 04:46 041 6.1
2015-May-26 04:36 043 6.1
2015-May-26 04:31 044 6.1
2015-May-26 04:21 043 6.7
2015-May-26 04:16 043 6.7
2015-May-26 04:11 042 6.7
2015-May-26 04:01 048 7.2
2015-May-26 03:56 057 7.2
2015-May-26 03:51 060 7.2
2015-May-26 03:46 022 7.2
2015-May-26 03:41 044 7.2
2015-May-26 03:36 046 7.2
2015-May-26 03:31 037 7.8
2015-May-26 03:26 022 7.2
2015-May-26 03:16 021 7.8
2015-May-26 03:11 019 7.8
2015-May-26 03:06 029 7.8
2015-May-26 02:56 009 7.2
2015-May-26 02:51 021 7.2
2015-May-26 02:46 071 7.2
2015-May-26 02:36 044 7.2
2015-May-26 02:31 041 7.2
2015-May-26 02:21 069 7.2
2015-May-26 02:16 069 7.2
2015-May-26 02:11 026 7.8
2015-May-26 02:01 074 7.8
2015-May-26 01:56 065 7.8
2015-May-26 01:51 075 7.8
2015-May-26 01:41 057 7.8
2015-May-26 01:36 063 7.8
2015-May-26 01:26 045 8.3
2015-May-26 01:21 061 8.3
2015-May-26 01:16 073 8.3
2015-May-26 01:06 084 8.3
2015-May-26 01:01 069 8.3
2015-May-26 00:56 044 8.3
2015-May-26 00:51 049 8.3
2015-May-26 00:41 017 8.3
2015-May-26 00:36 019 8.9
2015-May-26 00:31 045 8.9
2015-May-26 00:21 048 8.9
2015-May-26 00:16 054 8.9
2015-May-26 00:06 038 8.9
2015-May-26 00:01 036 8.9
2015-May-25 23:56 030 8.9
2015-May-25 23:51 037 8.9
2015-May-25 23:41 025 8.9
2015-May-25 23:36 023 9.4
2015-May-25 23:26 008 9.4
2015-May-25 23:21 046 8.9
2015-May-25 23:11 025 9.4
2015-May-25 23:06 018 9.4
2015-May-25 23:01 014 9.4
2015-May-25 22:56 015 9.4
2015-May-25 22:46 023 9.4
2015-May-25 22:41 018 10.0
2015-May-25 22:36 019 10.0
2015-May-25 22:26 021 10.0
2015-May-25 22:21 027 10.0
2015-May-25 22:11 027 10.0
2015-May-25 22:06 027 9.4
2015-May-25 22:01 028 9.4
2015-May-25 21:51 027 10.0
2015-May-25 21:46 027 10.0
2015-May-25 21:41 027 10.0
2015-May-25 21:36 027 10.6
2015-May-25 21:26 028 10.6
2015-May-25 21:21 028 10.6
2015-May-25 21:11 029 11.1
2015-May-25 21:06 027 11.1
2015-May-25 21:01 027 11.1
2015-May-25 20:51 028 11.1
2015-May-25 20:46 029 11.1
2015-May-25 20:41 028 11.7
2015-May-25 20:31 029 11.7
2015-May-25 20:26 029 11.7
2015-May-25 20:21 029 11.7
2015-May-25 20:11 029 12.2
2015-May-25 20:06 029 12.8
2015-May-25 19:56 029 12.8
2015-May-25 19:51 029 13.3
2015-May-25 19:46 029 13.3
2015-May-25 19:41 027 13.9
2015-May-25 19:31 021 13.9
2015-May-25 19:26 019 14.4
2015-May-25 19:16 017 15.0
2015-May-25 19:11 013 15.0
2015-May-25 19:01 021 16.1
2015-May-25 18:56 006 16.1
2015-May-25 18:51 019 16.7
2015-May-25 18:46 020 16.7
2015-May-25 18:36 030 17.2
2015-May-25 18:31 029 17.2
2015-May-25 18:26 031 17.8
2015-May-25 18:16 029 17.8
2015-May-25 18:11 030 17.8
2015-May-25 18:06 027 18.3
2015-May-25 18:01 028 18.3
2015-May-25 17:56 034 18.3
2015-May-25 17:51 019 18.3
2015-May-25 17:46 010 18.3
2015-May-25 17:36 356 18.3
2015-May-25 17:31 354 18.3
2015-May-25 17:21 001 18.9
2015-May-25 17:16 352 18.9
2015-May-25 17:11 344 19.4
2015-May-25 17:01 351 19.4
2015-May-25 16:56 335 19.4
2015-May-25 16:51 350 19.4
2015-May-25 16:41 002 19.4
2015-May-25 16:36 011 19.4
2015-May-25 16:31 007 20.0
2015-May-25 16:21 031 20.6
2015-May-25 16:16 013 20.0
2015-May-25 16:11 344 20.0
2015-May-25 16:01 355 19.4
2015-May-25 15:56 002 20.0
2015-May-25 15:51 005 20.0
2015-May-25 15:46 004 20.0
2015-May-25 15:36 342 19.4
2015-May-25 15:31 351 19.4
2015-May-25 15:26 027 20.0
2015-May-25 15:16 049 19.4
2015-May-25 15:11 004 18.9
2015-May-25 15:06 007 18.3
2015-May-25 14:51 029 19.4
2015-May-25 14:46 356 18.9
2015-May-25 14:36 356 18.3
2015-May-25 14:31 357 18.3
2015-May-25 14:26 004 18.9
2015-May-25 14:16 004 18.9
2015-May-25 14:11 002 18.9
2015-May-25 14:06 004 18.9
2015-May-25 14:01 004 19.4
2015-May-25 13:56 003 19.4
2015-May-25 13:46 036 20.0
2015-May-25 13:41 031 20.0
2015-May-25 13:36 021 19.4
2015-May-25 13:26 021 19.4
2015-May-25 13:21 011 18.9
2015-May-25 13:16 011 18.3
2015-May-25 13:06 011 18.3
2015-May-25 13:01 040 18.3
2015-May-25 12:56 040 18.3
2015-May-25 12:51 040 18.3
2015-May-25 12:46 041 18.3
2015-May-25 12:41 041 18.9
2015-May-25 12:31 051 18.9
2015-May-25 12:26 050 18.3
2015-May-25 12:16 049 18.3
2015-May-25 12:11 029 18.3
2015-May-25 12:06 027 18.3
2015-May-25 11:56 037 17.8
2015-May-25 11:51 039 17.2
2015-May-25 11:46 038 17.2
2015-May-25 11:36 038 16.7
2015-May-25 11:31 038 17.2
2015-May-25 11:26 048 17.2
2015-May-25 11:21 049 16.7
2015-May-25 11:16 050 16.7
2015-May-25 11:11 050 16.7
2015-May-25 11:06 010 16.7
2015-May-25 10:56 012 17.2
2015-May-25 10:51 040 17.2
2015-May-25 10:46 042 17.2
2015-May-25 10:41 047 17.2
2015-May-25 10:36 046 17.2
2015-May-25 10:31 046 17.8
2015-May-25 10:26 050 17.2
2015-May-25 10:21 050 16.7
2015-May-25 10:11 021 16.7
2015-May-25 10:06 036 16.7
2015-May-25 09:56 049 16.1
2015-May-25 09:51 017 16.1
2015-May-25 09:46 026 15.6
2015-May-25 09:36 026 15.6
2015-May-25 09:31 025 15.0
2015-May-25 09:26 025 15.6
2015-May-25 09:16 047 15.0
2015-May-25 09:11 050 15.0
2015-May-25 09:06 050 15.0